Home   Weather   Managua   Past weeks

Flag for Nicaragua Past Weather in Managua, Nicaragua — Yesterday and Last 2 Weeks

Now
79 °F

Passing clouds.


Feels Like: 81 °F
Forecast: 72 / 87 °F
Wind: 12 mph from East

Location: Managua A. C. Sandino

Current Time: Jan 17, 2017 at 8:08:15 pm

Latest Report: Jan 17, 2017 at 7:00 pm


Visibility: N/A

Pressure: 29.92 "Hg

Humidity: 70%

Dew Point: 68 °F

Location of ManaguaLocation

Past Weather in Managua — Graph

°F

Managua Temperature Yesterday

Maximum temperature yesterday: 86 °F (at 1:00 pm)
Minimum temperature yesterday: 70 °F (at 4:00 am)
Average temperature yesterday: 77 °F

High & Low Weather Summary for the Past Weeks

 TemperatureHumidityPressure
High91 °F (Jan 3, 1:00 pm)94% (Jan 5, 4:00 am)30.04 "Hg (Jan 5, 4:00 am)
Low68 °F (Jan 6, 6:00 am)36% (Jan 5, 2:00 pm)29.74 "Hg (Jan 3, 3:00 pm)
Average80 °F65%29.89 "Hg
* Reported Jan 2 6:00 pm — Jan 17 6:00 pm, Managua, Weather by CustomWeather, © 2017

Note: Actual official high and low records may vary slightly from our data, if they occured in-between our weather recording intervals... More about our weather records

Advertising

Managua Weather History for the Previous 24 Hours

Scroll right to see more
 ConditionsComfort  
Time TempWeatherWind HumidityBarometerVisibility
6:00 pm
Tue, Jan 17
81 °FPassing clouds.9 mph66%29.89 "HgN/A
5:00 pm84 °FScattered clouds.14 mph62%29.86 "HgN/A
4:00 pm86 °FPassing clouds.18 mph55%29.83 "HgN/A
3:00 pm86 °FPassing clouds.21 mph55%29.83 "HgN/A
2:00 pm88 °FPassing clouds.23 mph52%29.83 "HgN/A
1:00 pm84 °FScattered clouds.21 mph58%29.86 "Hg6 mi
12:00 pm84 °FScattered clouds.16 mph62%29.89 "HgN/A
11:00 am84 °FPassing clouds.14 mph58%29.92 "HgN/A
10:00 am81 °FPassing clouds.14 mph70%29.95 "HgN/A
9:00 am75 °FRain. Scattered clouds.9 mph89%29.95 "Hg6 mi
8:00 am77 °FScattered clouds.16 mph74%29.95 "HgN/A
7:00 am75 °FScattered clouds.12 mph83%29.92 "HgN/A
6:00 am73 °FPassing clouds.5 mph89%29.89 "HgN/A
5:00 am73 °FPassing clouds.5 mph89%29.89 "HgN/A
4:00 am72 °FPassing clouds.No wind88%29.86 "HgN/A
1:00 am73 °FPassing clouds.7 mph83%29.86 "HgN/A
11:00 pm
Mon, Jan 16
75 °FPassing clouds.5 mph83%29.92 "HgN/A
10:00 pm75 °FPassing clouds.5 mph83%29.92 "HgN/A
9:00 pm73 °FPassing clouds.7 mph89%29.89 "HgN/A
8:00 pm73 °FPassing clouds.5 mph89%29.89 "HgN/A
Weather by CustomWeather, © 2017

See weather overviewHow to use our weather pages